This demonstration page uses our WeatherBlox Daily Observations layout. Learn more.

Hourly Observations for January 15, 2020

Temp ( °F °C ) Dew Point ( °F °C ) Humidity (%) Winds ( mph kmh ) Pressure ( in mb ) Visibility ( mi km ) Precip ( " mm )
12:15 am 00:15 Cloudy 30 -1 30 -1 100 100 SSE 3 6 30.24 1024 0.25 0.402335 N/A
12:35 am 00:35 Cloudy 32 0 32 0 100 100 SSE 5 7 30.24 1024 N/A N/A
12:55 am 00:55 Cloudy 32 0 32 0 100 100 Calm 30.23 1024 0.25 0.402335 N/A
1:15 am 01:15 Cloudy 32 0 32 0 100 100 SSE 5 7 30.23 1024 0.25 0.402335 N/A
1:35 am 01:35 Cloudy 32 0 32 0 100 100 SSE 5 7 30.23 1024 0.25 0.402335 N/A
1:55 am 01:55 Cloudy 32 0 32 0 100 100 Calm 30.23 1024 0.25 0.402335 N/A
2:15 am 02:15 Cloudy 30 -1 30 -1 100 100 Calm 30.22 1023 N/A N/A
2:36 am 02:36 Cloudy 30 -1 30 -1 100 100 Calm 30.22 1023 0.5 0.80467 N/A
2:55 am 02:55 Cloudy 28 -2 28 -2 100 100 Calm 30.23 1024 0.5 0.80467 N/A
3:16 am 03:16 Cloudy 28 -2 28 -2 100 100 Calm 30.22 1023 0.5 0.80467 N/A
3:36 am 03:36 Cloudy 28 -2 28 -2 100 100 Calm 30.22 1023 0.5 0.80467 N/A
3:56 am 03:56 Cloudy 28 -2 28 -2 100 100 Calm 30.21 1023 0.25 0.402335 N/A
4:16 am 04:16 Cloudy 30 -1 30 -1 100 100 Calm 30.2 1023 0.25 0.402335 N/A
4:36 am 04:36 Cloudy 30 -1 30 -1 100 100 Calm 30.18 1022 0.25 0.402335 N/A
4:55 am 04:55 Cloudy 28 -2 28 -2 100 100 E 3 6 30.18 1022 0.25 0.402335 N/A
5:15 am 05:15 Cloudy 28 -2 28 -2 100 100 Calm 30.17 1022 0.25 0.402335 N/A
5:35 am 05:35 Cloudy 28 -2 28 -2 100 100 Calm 30.16 1021 0.25 0.402335 N/A
5:56 am 05:56 Cloudy 30 -1 30 -1 100 100 E 3 6 30.16 1021 0.25 0.402335 N/A
6:15 am 06:15 Cloudy 30 -1 30 -1 100 100 E 5 7 30.16 1021 0.25 0.402335 N/A
6:35 am 06:35 Cloudy 28 -2 28 -2 100 100 ENE 3 6 30.15 1021 0.25 0.402335 N/A
6:55 am 06:55 Cloudy 28 -2 28 -2 100 100 Calm 30.15 1021 0.5 0.80467 N/A
7:15 am 07:15 Mostly Cloudy 28 -2 28 -2 100 100 Calm 30.15 1021 2 3.21868 N/A
7:35 am 07:35 Clear 30 -1 30 -1 100 100 SE 3 6 30.14 1021 5 8.0467 N/A
7:56 am 07:56 Clear 30 -1 30 -1 100 100 SE 5 7 30.13 1020 5 8.0467 N/A
8:15 am 08:15 Mostly Cloudy 32 0 32 0 100 100 SE 5 7 30.13 1020 4 6.43736 N/A
8:36 am 08:36 Cloudy 32 0 32 0 100 100 E 3 6 30.13 1020 3 4.82802 N/A
8:55 am 08:55 Cloudy 34 1 34 1 100 100 ESE 5 7 30.11 1020 2.5 4.02335 N/A
9:15 am 09:15 Cloudy 34 1 34 1 100 100 SE 3 6 30.11 1020 2 3.21868 N/A
9:36 am 09:36 Cloudy 34 1 34 1 100 100 SE 6 9 30.1 1019 2 3.21868 N/A
9:55 am 09:55 Cloudy 36 2 36 2 100 100 SE 7 11 30.1 1019 2 3.21868 N/A
10:16 am 10:16 Cloudy 36 2 36 2 100 100 SSE 5 7 30.1 1019 1.75 2.816345 N/A
10:35 am 10:35 Cloudy 37 3 37 3 100 100 SSE 7 11 30.09 1019 1.25 2.011675 N/A
10:55 am 10:55 Cloudy 37 3 37 3 100 100 SE 5 7 30.08 1019 0.75 1.207005 N/A
11:16 am 11:16 Cloudy 37 3 37 3 100 100 ESE 5 7 30.08 1019 0.75 1.207005 N/A
11:35 am 11:35 Cloudy 39 4 39 4 100 100 SE 3 6 30.07 1018 1 1.60934 N/A
11:56 am 11:56 Cloudy 39 4 39 4 100 100 Calm 30.07 1018 1 1.60934 N/A
12:16 pm 12:16 Cloudy 41 5 41 5 100 100 SSE 3 6 30.04 1017 0.75 1.207005 N/A
12:35 pm 12:35 Cloudy 41 5 41 5 100 100 SE 6 9 30.03 1017 0.5 0.80467 N/A
12:55 pm 12:55 Cloudy 41 5 41 5 100 100 SSE 8 13 30.01 1016 0.5 0.80467 N/A
1:16 pm 13:16 Cloudy 43 6 43 6 100 100 S 8 13 29.99 1016 0.25 0.402335 N/A
1:35 pm 13:35 Cloudy 45 7 45 7 100 100 S 8 13 29.98 1015 0.25 0.402335 N/A
1:56 pm 13:56 Cloudy 45 7 45 7 100 100 SSW 8 13 29.98 1015 0.5 0.80467 N/A
2:15 pm 14:15 Cloudy 46 8 46 8 100 100 SW 9 15 29.98 1015 0.5 0.80467 N/A
2:36 pm 14:36 Cloudy 46 8 46 8 100 100 SW 8 13 29.98 1015 0.75 1.207005 N/A
2:56 pm 14:56 Cloudy 46 8 46 8 100 100 SW 7 11 29.98 1015 0.75 1.207005 N/A
3:16 pm 15:16 Cloudy 46 8 46 8 100 100 WSW 9 15 29.99 1015 1 1.60934 N/A
3:35 pm 15:35 Cloudy 46 8 46 8 100 100 WSW 14 22 29.99 1015 1.75 2.816345 N/A
3:56 pm 15:56 Cloudy 46 8 46 8 100 100 W 16 26 30.01 1016 2 3.21868 N/A
4:16 pm 16:16 Cloudy 46 8 46 8 100 100 W 14 22 30.01 1016 5 8.0467 N/A
4:35 pm 16:35 Cloudy 46 8 46 8 100 100 W 10 17 30.03 1017 10 16.0934 N/A
4:56 pm 16:56 Cloudy 46 8 46 8 100 100 W 9 15 30.03 1017 10 16.0934 N/A
5:16 pm 17:16 Cloudy 46 8 46 8 100 100 W 10 17 30.05 1018 7 11.26538 N/A
5:35 pm 17:35 Cloudy 46 8 46 8 100 100 W 12 19 30.05 1018 7 11.26538 N/A
5:56 pm 17:56 Cloudy 46 8 46 8 100 100 W 14 22 30.06 1018 10 16.0934 N/A
6:15 pm 18:15 Cloudy 46 8 46 8 100 100 W 12 19 30.08 1019 7 11.26538 N/A
6:35 pm 18:35 Cloudy 45 7 45 7 100 100 W 15 24 30.09 1019 7 11.26538 N/A
6:56 pm 18:56 Cloudy 45 7 45 7 100 100 WNW 16 26 30.11 1020 7 11.26538 N/A
7:15 pm 19:15 Cloudy 45 7 45 7 100 100 W 16 26 30.11 1020 7 11.26538 N/A
7:36 pm 19:36 Cloudy 45 7 45 7 100 100 WNW 13 20 30.12 1020 10 16.0934 N/A
7:55 pm 19:55 Cloudy 45 7 45 7 100 100 WNW 16 26 30.12 1020 10 16.0934 N/A
8:15 pm 20:15 Cloudy 43 6 43 6 100 100 WNW 15 24 30.13 1020 10 16.0934 N/A
8:36 pm 20:36 Cloudy 43 6 43 6 100 100 WNW 18 30 30.13 1020 10 16.0934 N/A
8:55 pm 20:55 Cloudy 43 6 43 6 100 100 W 8 13 30.13 1020 10 16.0934 N/A
9:16 pm 21:16 Cloudy 43 6 43 6 100 100 WNW 22 35 30.16 1021 10 16.0934 N/A
9:36 pm 21:36 Cloudy 43 6 43 6 100 100 NW 20 31 30.17 1022 10 16.0934 N/A
9:55 pm 21:55 Cloudy 41 5 41 5 100 100 NW 16 26 30.2 1023 10 16.0934 N/A
10:16 pm 22:16 Cloudy 39 4 39 4 100 100 WNW 15 24 30.21 1023 10 16.0934 N/A
10:35 pm 22:35 Cloudy 39 4 39 4 100 100 NW 10 17 30.22 1023 10 16.0934 N/A
10:55 pm 22:55 Cloudy 39 4 39 4 100 100 NW 13 20 30.22 1023 7 11.26538 N/A
11:15 pm 23:15 Cloudy 39 4 39 4 100 100 NW 20 31 30.24 1024 10 16.0934 N/A
11:35 pm 23:35 Cloudy 37 3 37 3 100 100 NW 20 31 30.24 1024 10 16.0934 N/A
11:55 pm 23:55 Cloudy 37 3 37 3 100 100 WNW 18 30 30.26 1025 10 16.0934 N/A

Powered by AerisWeather